CW0762 Weather Reports


Display with metric or nautical units.
time (UTC)temp
F
wind
direction
speed
MPH
gust
MPH
rain 1hr
in
rain 24hr
in
rain mn
in
humidity
%
barometer
mb
20260509021505 72 44 0.0 3.0 0.00 0.35 0.35 81 1009.2
20260509020001 72 49 0.0 6.0 0.00 0.35 0.35 81 1009.2
20260509014502 72 45 1.0 5.0 0.00 0.35 0.35 80 1009.0
20260509013003 73 38 1.0 4.0 0.00 0.35 0.35 79 1009.3
20260509011601 73 41 0.0 2.0 0.00 0.35 0.35 78 1009.6
20260509010104 73 40 1.0 5.0 0.00 0.35 0.35 77 1009.3
20260509004609 73 57 0.0 5.0 0.00 0.35 0.35 76 1009.1
20260509003104 74 54 0.0 3.0 0.00 0.35 0.35 75 1008.9
20260509001559 74 111 0.0 4.0 0.00 0.35 0.35 74 1008.8
20260509000058 74 55 1.0 7.0 0.00 0.35 0.35 72 1008.8
20260508234557 75 70 2.0 5.0 0.00 0.35 0.35 72 1009.0
20260508233057 75 50 2.0 6.0 0.00 0.35 0.35 69 1009.2
20260508231558 76 146 1.0 6.0 0.00 0.35 0.35 69 1009.2
20260508230124 76 46 1.0 5.0 0.00 0.35 0.35 68 1009.2
20260508224601 76 56 1.0 6.0 0.00 0.35 0.35 67 1009.4
20260508223053 77 69 1.0 7.0 0.00 0.35 0.35 67 1009.4
20260508221553 77 148 1.0 7.0 0.00 0.35 0.35 66 1009.4
20260508220117 77 65 1.0 7.0 0.00 0.35 0.35 65 1009.5
20260508214556 77 58 1.0 7.0 0.00 0.35 0.35 65 1009.4
20260508213053 77 61 3.0 7.0 0.00 0.35 0.35 65 1009.4
20260508211550 77 59 1.0 7.0 0.00 0.35 0.35 65 1009.8
20260508210048 76 49 1.0 5.0 0.00 0.35 0.35 65 1009.9
20260508204546 75 49 2.0 5.0 0.00 0.35 0.35 66 1010.0
20260508203046 74 35 0.0 7.0 0.00 0.35 0.35 70 1010.9
20260508201545 74 94 0.0 4.0 0.00 0.35 0.35 69 1011.7
20260508200042 74 22 1.0 4.0 0.00 0.35 0.35 69 1011.6
20260508194540 75 61 1.0 7.0 0.00 0.35 0.35 70 1011.7
20260508193040 75 126 0.0 8.0 0.00 0.35 0.35 68 1011.7
20260508191537 76 57 0.0 4.0 0.00 0.35 0.35 67 1011.8
20260508190042 77 64 1.0 8.0 0.00 0.35 0.35 65 1011.9
20260508184543 77 126 2.0 5.0 0.00 0.35 0.35 64 1011.9
20260508183035 77 131 0.0 5.0 0.00 0.35 0.35 65 1012.1
20260508181543 77 144 2.0 6.0 0.00 0.35 0.35 65 1012.4
20260508180028 76 100 2.0 6.0 0.00 0.35 0.35 65 1012.8
20260508174534 76 52 2.0 6.0 0.00 0.35 0.35 65 1012.9
20260508173022 75 56 0.0 4.0 0.00 0.35 0.35 67 1013.2
20260508171518 74 59 1.0 3.0 0.00 0.35 0.35 67 1013.2
20260508170015 72 61 2.0 7.0 0.00 0.35 0.35 69 1013.6
20260508164511 71 120 1.0 5.0 0.00 0.35 0.35 70 1013.9
20260508163007 70 53 1.0 4.0 0.00 0.35 0.35 71 1014.4
20260508161503 68 46 1.0 5.0 0.00 0.35 0.35 78 1014.7
20260508160104 67 120 0.0 4.0 0.00 0.35 0.35 79 1014.8
20260508154557 66 69 1.0 5.0 0.00 0.35 0.35 81 1014.9
20260508153100 65 24 0.0 3.0 0.00 0.35 0.35 85 1015.2
20260508151551 64 74 0.0 3.0 0.00 0.35 0.35 86 1015.0
20260508150053 64 76 0.0 3.0 0.00 0.35 0.35 89 1015.5
20260508144553 63 80 0.0 1.0 0.00 0.35 0.35 93 1015.3
20260508143055 63 81 0.0 2.0 0.00 0.35 0.35 94 1015.5
20260508141556 62 84 0.0 1.0 0.00 0.35 0.35 94 1015.8
20260508140046 62 84 0.0 2.0 0.00 0.35 0.35 94 1015.6
20260508134556 61 84 0.0 0.0 0.01 0.35 0.35 94 1015.5
20260508133046 61 84 0.0 1.0 0.02 0.35 0.35 94 1015.4
20260508131545 60 84 0.0 0.0 0.02 0.35 0.35 94 1015.5
20260508130044 60 84 0.0 1.0 0.08 0.35 0.35 94 1015.6
20260508124544 60 84 0.0 0.0 0.07 0.34 0.34 93 1015.7
20260508123051 60 84 0.0 3.0 0.06 0.33 0.33 93 1015.7
20260508121544 60 97 0.0 1.0 0.06 0.33 0.33 93 1015.4
20260508120045 60 59 0.0 2.0 0.00 0.27 0.27 93 1016.1
20260508114548 60 57 0.0 3.0 0.01 0.27 0.27 93 1015.5
20260508113049 60 86 0.0 2.0 0.05 0.27 0.27 93 1015.5
20260508111544 60 86 0.0 3.0 0.24 0.27 0.27 93 1015.4
20260508110039 60 88 1.0 3.0 0.24 0.27 0.27 93 1015.3
20260508104541 60 96 0.0 3.0 0.23 0.26 0.26 92 1015.2
20260508103040 61 112 0.0 3.0 0.18 0.21 0.21 92 1015.8
20260508101536 60 52 0.0 0.0 0.00 0.03 0.03 92 1015.2
20260508100036 60 50 0.0 1.0 0.00 0.03 0.03 92 1015.4
20260508094546 61 50 0.0 1.0 0.00 0.03 0.03 91 1015.1
20260508093035 61 50 0.0 1.0 0.01 0.03 0.03 91 1014.9
20260508091539 61 50 0.0 0.0 0.01 0.03 0.03 90 1015.0
20260508090032 61 50 0.0 0.0 0.01 0.03 0.03 90 1015.2
20260508084531 61 50 0.0 2.0 0.02 0.03 0.03 89 1014.9
20260508083029 61 50 0.0 1.0 0.02 0.02 0.02 88 1015.4
20260508081554 61 60 0.0 1.0 0.02 0.02 0.02 88 1016.3
20260508080025 62 60 0.0 1.0 0.02 0.02 0.02 86 1015.0
20260508074522 63 60 0.0 1.0 0.01 0.01 0.01 82 1016.2
20260508073026 63 60 0.0 0.0 0.00 0.00 0.00 80 1016.3
20260508071536 62 59 0.0 0.0 0.00 0.00 0.00 77 1016.8
20260508070018 62 59 0.0 0.0 0.00 0.00 0.00 76 1016.4
20260508064516 62 59 0.0 0.0 0.00 0.00 0.00 76 1016.4
20260508063028 62 59 0.0 0.0 0.00 0.00 0.00 75 1016.7
20260508061516 62 59 0.0 0.0 0.00 0.00 0.00 74 1017.0
20260508060011 62 59 0.0 0.0 0.00 0.00 0.00 74 1017.0
20260508054512 62 59 0.0 0.0 0.00 0.00 0.00 73 1016.8
20260508053010 63 59 0.0 0.0 0.00 0.00 0.00 72 1016.8
20260508051507 63 59 0.0 0.0 0.00 0.00 0.00 72 1017.0
20260508050005 63 59 0.0 0.0 0.00 0.00 0.00 71 1016.9
20260508044506 63 59 0.0 0.0 0.00 0.00 0.00 70 1017.0
20260508043005 63 59 0.0 0.0 0.00 0.00 0.00 69 1017.0
20260508041504 64 59 0.0 0.0 0.00 0.00 0.00 68 1016.9
20260508040004 64 59 0.0 0.0 0.00 0.00 0.00 66 1016.9
20260508034504 64 59 0.0 0.0 0.00 0.00 0.00 66 1016.7
20260508033003 65 59 0.0 0.0 0.00 0.00 0.00 65 1016.7
20260508031503 65 59 0.0 0.0 0.00 0.00 0.00 64 1016.6
20260508030005 65 59 0.0 1.0 0.00 0.00 0.00 63 1016.5
20260508024502 66 59 0.0 0.0 0.00 0.00 0.00 63 1016.4
20260508023002 66 59 0.0 0.0 0.00 0.00 0.00 62 1016.1